Regional Weather Roundup
Issued by NWS Charleston, WV

Home | Current Version | Previous Version | Graphics & Text | Print | Product List | Glossary On
Versions: 1 2 3 4 5 6 7 8 9 10 11 12 13 14 15 16 17 18 19 20 21 22 23 24 25 26 27
000
ASUS41 KRLX 111810
RWRRLX
West Virginia Regional Weather Roundup
National Weather Service Charleston WV
100 PM EST MON DEC 11 2017

Note: "fair" indicates few or no clouds below 12,000 feet with no
significant weather and/or obstructions to visibility.

WVZ003-111900-
Northern Panhandle of West Virginia

CITY           SKY/WX    TMP DP  RH WIND       PRES   REMARKS
WHEELING       CLOUDY    34  20  56 SW10      29.96F
$$

WVZ009-111900-
Northwest West Virginia

CITY           SKY/WX    TMP DP  RH WIND       PRES   REMARKS
PARKERSBURG    CLOUDY    39  23  52 S9        30.00F
$$

WVZ006-111900-
Western West Virginia

CITY           SKY/WX    TMP DP  RH WIND       PRES   REMARKS
HUNTINGTON     CLOUDY    44  24  45 S8        29.99F
$$

WVZ015-111900-
West Central West Virginia

CITY           SKY/WX    TMP DP  RH WIND       PRES   REMARKS
CHARLESTON     CLOUDY    45  24  43 S7        29.99F
$$

WVZ022-031-111900-
North Central West Virginia

CITY           SKY/WX    TMP DP  RH WIND       PRES   REMARKS
CLARKSBURG     MOSUNNY   42  22  44 SW13      29.98F
MORGANTOWN     PTSUNNY   39  21  48 S12G17    29.98F
$$

WVZ025-035-042-045-111900-
Southern West Virginia

CITY           SKY/WX    TMP DP  RH WIND       PRES   REMARKS
BECKLEY        MOSUNNY   41  24  51 S12       29.98F
LOGAN          PTSUNNY   45  25  45 CALM      29.98F
BLUEFIELD      SUNNY     42  21  43 SW8       29.99F
LEWISBURG      SUNNY     41  24  52 SW8       29.99F
$$

WVZ047-111900-
Northern Mountains of West Virginia

CITY           SKY/WX    TMP DP  RH WIND       PRES   REMARKS
ELKINS         SUNNY     42  16  34 W6        29.96F
$$

WVZ052-111900-
Eastern Panhandle of West Virginia

CITY           SKY/WX    TMP DP  RH WIND       PRES   REMARKS
MARTINSBURG    SUNNY     45  21  38 VRB7      29.99F
PETERSBURG     SUNNY     46  19  35 SW8       29.97F
$$




USA.gov is the U.S. government's official web portal to all federal, state and local government web resources and services.